Main page
Satellite images Climate Cyclones Lightning AirportsFAQ Languages Contact Newsletter About
Weather : Europe Africa North America South America Asia Australia-Oceania Others

1217, Macau, Macau International Airport

latitude: , longitude: China, elevation: 22-10N m


METAR: VMMC 180800Z 35013KT 9999 FEW025 SCT048 25/20 Q1011 NOSIG